Radiation Dose at Monitoring Post of Fukushima Daini Nuclear Power Station
Date,Time,MP-1(microSv/h),MP-2(microSv/h),MP-3(microSv/h),MP-4(microSv/h),MP-5(microSv/h),MP-6(microSv/h),MP-7(microSv/h),Wind Direction,Wind Velocity(m/s),Rain
2018/08/25,00:00,0.321,0.200,0.326,0.308,0.288,0.160,0.097,south-southwest,7.3,No
2018/08/25,00:10,0.319,0.200,0.324,0.315,0.286,0.161,0.097,southwest,8.4,No
2018/08/25,00:20,0.321,0.198,0.322,0.314,0.284,0.161,0.098,southwest,7.1,No
2018/08/25,00:30,0.323,0.197,0.322,0.312,0.285,0.161,0.097,southwest,8.1,No
2018/08/25,00:40,0.321,0.200,0.323,0.311,0.286,0.160,0.097,south-southwest,8.4,No
2018/08/25,00:50,0.319,0.200,0.325,0.310,0.289,0.160,0.097,south-southwest,7.4,No
2018/08/25,01:00,0.321,0.198,0.326,0.310,0.288,0.161,0.098,south-southwest,6.2,No
2018/08/25,01:10,0.323,0.197,0.322,0.315,0.284,0.160,0.098,south-southwest,3.2,No
2018/08/25,01:20,0.321,0.200,0.323,0.313,0.284,0.161,0.098,southwest,3.7,No
2018/08/25,01:30,0.319,0.200,0.323,0.313,0.286,0.161,0.097,southwest,2.2,No
2018/08/25,01:40,0.323,0.197,0.326,0.309,0.290,0.160,0.098,south-southwest,4.0,No
2018/08/25,01:50,0.322,0.198,0.325,0.314,0.289,0.160,0.098,south-southwest,4.6,No
2018/08/25,02:00,0.320,0.200,0.322,0.314,0.286,0.160,0.097,southwest,5.6,No
2018/08/25,02:10,0.319,0.200,0.323,0.312,0.285,0.161,0.097,southwest,5.5,No
2018/08/25,02:20,0.324,0.198,0.325,0.309,0.287,0.160,0.098,southwest,4.3,No
2018/08/25,02:30,0.321,0.199,0.326,0.312,0.289,0.160,0.097,southwest,3.8,No
2018/08/25,02:40,0.320,0.200,0.323,0.316,0.287,0.160,0.098,south-southwest,3.6,No
2018/08/25,02:50,0.320,0.198,0.323,0.315,0.285,0.161,0.097,southwest,3.5,No
2018/08/25,03:00,0.325,0.198,0.322,0.311,0.284,0.161,0.098,south-southwest,3.6,No
2018/08/25,03:10,0.321,0.200,0.326,0.309,0.285,0.160,0.098,south-southwest,2.5,No
2018/08/25,03:20,0.317,0.200,0.325,0.314,0.288,0.160,0.097,south-southwest,2.0,No
2018/08/25,03:30,0.323,0.197,0.322,0.312,0.287,0.161,0.098,south-southwest,3.6,No
2018/08/25,03:40,0.322,0.198,0.322,0.311,0.286,0.161,0.098,south-southwest,4.4,No
2018/08/25,03:50,0.322,0.201,0.327,0.311,0.283,0.161,0.098,south-southwest,2.6,No
2018/08/25,04:00,0.319,0.198,0.326,0.314,0.288,0.161,0.098,south-southwest,2.3,No
2018/08/25,04:10,0.324,0.198,0.323,0.315,0.289,0.161,0.098,south-southwest,4.2,No
2018/08/25,04:20,0.323,0.199,0.322,0.313,0.287,0.161,0.099,south-southwest,3.1,No
2018/08/25,04:30,0.321,0.199,0.326,0.310,0.285,0.161,0.097,south-southwest,2.8,No
2018/08/25,04:40,0.320,0.198,0.326,0.314,0.287,0.161,0.098,south-southwest,2.8,No
2018/08/25,04:50,0.323,0.199,0.324,0.315,0.289,0.162,0.098,south-southwest,2.5,No
2018/08/25,05:00,0.322,0.200,0.322,0.312,0.287,0.161,0.098,south-southwest,3.2,No
2018/08/25,05:10,0.318,0.199,0.327,0.310,0.285,0.161,0.097,south-southwest,2.7,No
2018/08/25,05:20,0.323,0.199,0.325,0.313,0.285,0.161,0.099,south-southwest,2.8,No
2018/08/25,05:30,0.323,0.200,0.322,0.315,0.291,0.161,0.097,southwest,3.4,No
2018/08/25,05:40,0.321,0.199,0.321,0.312,0.288,0.160,0.098,southwest,3.8,No
2018/08/25,05:50,0.321,0.199,0.327,0.309,0.287,0.160,0.097,southwest,2.9,No
2018/08/25,06:00,0.325,0.199,0.326,0.313,0.284,0.161,0.099,west-southwest,2.2,No
2018/08/25,06:10,0.322,0.200,0.322,0.314,0.284,0.161,0.098,west-southwest,1.7,No
2018/08/25,06:20,0.320,0.200,0.322,0.313,0.289,0.160,0.098,west-southwest,1.8,No
2018/08/25,06:30,0.320,0.198,0.326,0.312,0.289,0.160,0.098,west,1.5,No
2018/08/25,06:40,0.325,0.199,0.328,0.309,0.287,0.161,0.098,west-southwest,1.7,No
2018/08/25,06:50,0.323,0.200,0.326,0.312,0.286,0.161,0.098,southwest,1.5,No
2018/08/25,07:00,0.322,0.199,0.323,0.315,0.286,0.161,0.099,southwest,1.7,No
2018/08/25,07:10,0.318,0.199,0.322,0.314,0.285,0.160,0.097,west-southwest,1.3,No
2018/08/25,07:20,0.321,0.199,0.323,0.312,0.285,0.162,0.098,west,1.5,No
2018/08/25,07:30,0.325,0.198,0.321,0.312,0.284,0.162,0.098,southwest,2.1,No
2018/08/25,07:40,0.323,0.199,0.325,0.311,0.286,0.162,0.098,southwest,2.9,No
2018/08/25,07:50,0.322,0.199,0.328,0.311,0.286,0.161,0.098,southwest,2.3,No
2018/08/25,08:00,0.321,0.199,0.328,0.311,0.286,0.160,0.099,southwest,2.6,No
2018/08/25,08:10,0.321,0.199,0.325,0.312,0.288,0.162,0.098,southwest,2.6,No
2018/08/25,08:20,0.320,0.199,0.323,0.313,0.285,0.161,0.099,southwest,3.2,No
2018/08/25,08:30,0.322,0.200,0.322,0.314,0.287,0.160,0.099,south-southwest,3.2,No
2018/08/25,08:40,0.324,0.200,0.324,0.313,0.289,0.161,0.099,southwest,2.7,No
2018/08/25,08:50,0.322,0.200,0.324,0.314,0.289,0.162,0.098,southwest,2.8,No
2018/08/25,09:00,0.320,0.200,0.324,0.312,0.288,0.163,0.099,southwest,2.3,No
2018/08/25,09:10,0.321,0.200,0.323,0.313,0.289,0.162,0.099,southwest,2.7,No
2018/08/25,09:20,0.321,0.201,0.324,0.315,0.290,0.162,0.099,west-southwest,1.1,No
2018/08/25,09:30,0.323,0.200,0.324,0.316,0.291,0.162,0.099,south-southwest,0.7,No
2018/08/25,09:40,0.323,0.201,0.325,0.316,0.289,0.162,0.099,-,CALM,No
2018/08/25,09:50,0.323,0.200,0.325,0.318,0.290,0.162,0.099,-,CALM,No
2018/08/25,10:00,0.324,0.200,0.326,0.317,0.291,0.161,0.099,-,CALM,No
2018/08/25,10:10,0.324,0.200,0.325,0.318,0.291,0.159,0.098,south-southeast,0.9,No
2018/08/25,10:20,0.321,0.201,0.324,0.319,0.292,0.160,0.099,south-southeast,1.0,No
2018/08/25,10:30,0.326,0.202,0.324,0.317,0.287,0.160,0.098,southeast,1.8,No
2018/08/25,10:40,0.325,0.202,0.325,0.316,0.287,0.161,0.097,south-southeast,2.2,No
2018/08/25,10:50,0.327,0.203,0.326,0.317,0.286,0.159,0.098,south-southeast,2.4,No
2018/08/25,11:00,0.328,0.202,0.327,0.316,0.285,0.158,0.099,southeast,2.4,No
2018/08/25,11:10,0.326,0.202,0.328,0.317,0.285,0.160,0.098,southeast,2.1,No
2018/08/25,11:20,0.326,0.202,0.330,0.317,0.286,0.160,0.098,southeast,2.3,No
2018/08/25,11:30,0.327,0.202,0.328,0.315,0.287,0.160,0.099,east-southeast,1.9,No
2018/08/25,11:40,0.327,0.202,0.329,0.316,0.288,0.159,0.098,south-southeast,2.5,No
2018/08/25,11:50,0.326,0.201,0.328,0.317,0.289,0.159,0.098,south-southeast,2.9,No
2018/08/25,12:00,0.326,0.202,0.328,0.316,0.286,0.159,0.098,south-southeast,3.2,No
2018/08/25,12:10,0.324,0.202,0.328,0.317,0.287,0.160,0.098,south-southeast,3.1,No
2018/08/25,12:20,0.325,0.200,0.330,0.318,0.286,0.161,0.099,south-southeast,2.4,No
2018/08/25,12:30,0.324,0.201,0.328,0.316,0.288,0.159,0.098,south-southeast,2.6,No
2018/08/25,12:40,0.323,0.199,0.326,0.315,0.286,0.160,0.098,southeast,1.3,No
2018/08/25,12:50,0.321,0.201,0.326,0.316,0.288,0.160,0.098,south-southeast,1.8,No
2018/08/25,13:00,0.325,0.201,0.326,0.316,0.287,0.160,0.098,south-southeast,1.1,No
2018/08/25,13:10,0.324,0.201,0.328,0.316,0.288,0.160,0.099,south-southeast,1.1,No
2018/08/25,13:20,0.325,0.201,0.328,0.316,0.287,0.159,0.099,east-southeast,0.9,No
2018/08/25,13:30,0.325,0.200,0.325,0.315,0.287,0.159,0.098,-,CALM,No
2018/08/25,13:40,0.325,0.201,0.327,0.315,0.288,0.160,0.098,-,CALM,No
2018/08/25,13:50,0.324,0.200,0.325,0.315,0.287,0.160,0.098,-,CALM,No
2018/08/25,14:00,0.323,0.200,0.324,0.316,0.288,0.160,0.098,south-southeast,0.6,No
2018/08/25,14:10,0.324,0.200,0.325,0.314,0.289,0.160,0.098,-,CALM,No
2018/08/25,14:20,0.323,0.200,0.325,0.316,0.288,0.161,0.098,-,CALM,No
2018/08/25,14:30,0.323,0.199,0.324,0.314,0.288,0.159,0.098,south,1.5,No
2018/08/25,14:40,0.322,0.198,0.325,0.313,0.289,0.159,0.099,south-southeast,1.2,No
2018/08/25,14:50,0.320,0.199,0.322,0.313,0.287,0.158,0.098,-,CALM,Yes
2018/08/25,15:00,0.320,0.200,0.324,0.311,0.286,0.158,0.098,north-northeast,2.0,Yes
2018/08/25,15:10,0.320,0.200,0.325,0.313,0.287,0.159,0.098,south-southeast,1.1,No
2018/08/25,15:20,0.320,0.199,0.326,0.314,0.286,0.160,0.097,south-southwest,5.6,No
2018/08/25,15:30,0.321,0.200,0.325,0.313,0.287,0.159,0.097,south-southwest,7.5,No
2018/08/25,15:40,0.321,0.200,0.324,0.311,0.287,0.160,0.097,south-southwest,9.6,No
2018/08/25,15:50,0.322,0.201,0.324,0.313,0.286,0.159,0.097,south-southwest,6.9,No
2018/08/25,16:00,0.322,0.199,0.323,0.314,0.286,0.161,0.097,south-southwest,5.7,No
2018/08/25,16:10,0.322,0.200,0.324,0.314,0.286,0.163,0.098,southwest,5.1,No
2018/08/25,16:20,0.321,0.201,0.325,0.312,0.288,0.162,0.097,southwest,2.9,No
2018/08/25,16:30,0.325,0.200,0.325,0.315,0.288,0.163,0.099,west,2.5,No
2018/08/25,16:40,0.324,0.199,0.324,0.314,0.290,0.163,0.098,west,3.4,No
2018/08/25,16:50,0.323,0.200,0.326,0.314,0.290,0.162,0.097,northwest,3.4,No
2018/08/25,17:00,0.324,0.200,0.325,0.314,0.291,0.163,0.098,northwest,3.2,No
2018/08/25,17:10,0.322,0.200,0.325,0.314,0.289,0.162,0.098,northwest,1.6,No
2018/08/25,17:20,0.323,0.200,0.325,0.315,0.289,0.162,0.098,northwest,2.7,No
2018/08/25,17:30,0.323,0.200,0.326,0.316,0.288,0.161,0.097,northwest,1.6,No
2018/08/25,17:40,0.322,0.201,0.326,0.314,0.290,0.160,0.099,west-northwest,1.2,No
2018/08/25,17:50,0.324,0.200,0.325,0.313,0.289,0.162,0.098,west-northwest,0.8,No
2018/08/25,18:00,0.323,0.200,0.324,0.315,0.289,0.162,0.098,west-southwest,0.9,No
2018/08/25,18:10,0.321,0.200,0.325,0.313,0.287,0.162,0.098,west-northwest,1.5,No
2018/08/25,18:20,0.324,0.198,0.325,0.313,0.289,0.162,0.098,west,3.2,No
2018/08/25,18:30,0.322,0.200,0.325,0.313,0.288,0.162,0.097,west-northwest,2.5,No
2018/08/25,18:40,0.321,0.199,0.325,0.314,0.288,0.162,0.100,west-northwest,1.1,No
2018/08/25,18:50,0.324,0.200,0.325,0.317,0.289,0.163,0.099,northwest,2.1,No
2018/08/25,19:00,0.329,0.200,0.330,0.319,0.288,0.161,0.099,northwest,2.7,No
2018/08/25,19:10,0.324,0.202,0.331,0.318,0.286,0.161,0.098,west-northwest,3.4,No
2018/08/25,19:20,0.324,0.201,0.329,0.315,0.287,0.161,0.098,northwest,3.2,No
2018/08/25,19:30,0.323,0.201,0.327,0.313,0.287,0.163,0.099,west-northwest,2.7,No
2018/08/25,19:40,0.322,0.200,0.325,0.313,0.289,0.163,0.098,west-northwest,2.6,No
2018/08/25,19:50,0.324,0.199,0.324,0.317,0.292,0.162,0.099,west-northwest,2.3,No
2018/08/25,20:00,0.327,0.199,0.327,0.319,0.290,0.162,0.099,west-northwest,2.3,No
2018/08/25,20:10,0.327,0.201,0.331,0.317,0.289,0.162,0.099,west-northwest,2.7,No
2018/08/25,20:20,0.324,0.202,0.329,0.315,0.288,0.162,0.098,northwest,2.9,No
2018/08/25,20:30,0.321,0.201,0.327,0.314,0.286,0.165,0.097,west,3.4,No
2018/08/25,20:40,0.321,0.201,0.325,0.312,0.288,0.161,0.098,northwest,2.3,No
2018/08/25,20:50,0.323,0.200,0.324,0.317,0.286,0.161,0.099,northwest,2.5,No
2018/08/25,21:00,0.327,0.199,0.325,0.318,0.292,0.161,0.099,west-northwest,3.8,No
2018/08/25,21:10,0.326,0.201,0.331,0.316,0.289,0.163,0.098,west-northwest,4.3,No
2018/08/25,21:20,0.324,0.201,0.329,0.315,0.290,0.163,0.098,west-northwest,2.9,No
2018/08/25,21:30,0.322,0.201,0.327,0.312,0.289,0.161,0.098,west,3.2,No
2018/08/25,21:40,0.323,0.200,0.326,0.315,0.287,0.161,0.099,west-northwest,2.2,No
2018/08/25,21:50,0.327,0.199,0.324,0.319,0.287,0.161,0.099,northwest,4.0,No
2018/08/25,22:00,0.327,0.202,0.328,0.318,0.292,0.162,0.098,northwest,4.7,No
2018/08/25,22:10,0.324,0.202,0.330,0.316,0.291,0.162,0.098,northwest,5.0,No
2018/08/25,22:20,0.321,0.201,0.327,0.312,0.290,0.162,0.099,west-northwest,3.8,No
2018/08/25,22:30,0.323,0.200,0.326,0.313,0.288,0.162,0.100,west-northwest,2.7,No
2018/08/25,22:40,0.326,0.199,0.325,0.318,0.288,0.163,0.098,west,2.5,No
2018/08/25,22:50,0.324,0.202,0.327,0.317,0.287,0.161,0.098,west-southwest,2.4,No
2018/08/25,23:00,0.321,0.201,0.330,0.315,0.292,0.161,0.099,southwest,2.7,No
2018/08/25,23:10,0.322,0.200,0.328,0.314,0.291,0.161,0.099,southwest,1.5,No
2018/08/25,23:20,0.328,0.200,0.326,0.313,0.288,0.162,0.098,southwest,1.2,No
2018/08/25,23:30,0.327,0.203,0.324,0.318,0.287,0.162,0.099,-,CALM,No
2018/08/25,23:40,0.323,0.202,0.329,0.317,0.288,0.162,0.098,-,CALM,No
2018/08/25,23:50,0.321,0.201,0.331,0.315,0.291,0.161,0.099,northeast,0.9,No
